DMSP 5D-2 F13 DEB

Satellite information

Favourite Embed

Satellite Type and Status

DEBRISIN ORBIT

Key statistics

Satellite DMSP 5D-2 F13 DEB at a glance.

Uptime

11176

Days in orbit

Revolutions

≈ 14.2

Per day

Orbit

SSO

Sun Synchronous Orbit

Inclination

99.0

Latest

Satellite identification and parameters

Extended collection of information and parameters for DMSP 5D-2 F13 DEB.

Object identification

Identified? True

Debris? True

Object name: DMSP 5D-2 F13 DEB

International designator: 1995-015BN

Object number (NORAD): 40470

Object ID (CCSDS): 40470

Country: UNITED STATES OF AMERICA (US)

Current information (Y/N): Y

RCS size: SMALL

Orbital parameters

Period: 101.318 minutes

Inclination: 98.9872 deg

SMA: 7199.199 km

Apoapsis: 854.615 km

Periapsis: 787.513 km

RAAN: 283.0938 deg

Eccentricy: 0.00466039

Argument of periapsis: 56.6525 deg

Mean anomaly: 303.91 deg

Mean motion: 14.21269671 rev/day

Mean motion (dot): 0.00008464 rev/day2

B* drag term: 0.0038587793 1/REarth

Two-line elements (TLE)

Creation date: Oct. 20, 2025, 2:10 a.m.

Reference frame: TEME

Reference center: EARTH

Epoch: Oct. 19, 2025, 10:04 a.m. UTC

TLE line 0: 0 DMSP 5D-2 F13 DEB

TLE line 1: 1 40470U 95015BN 25292.41965383 .00008464 00000-0 38588-2 0 9990

TLE line 2: 2 40470 98.9872 283.0938 0046604 56.6525 303.9100 14.21269671545685

Live tracking on map

Real-time ground track for satellite DMSP 5D-2 F13 DEB.

In-orbit conjunctions

A list of the most updated potential collisions computed for object DMSP 5D-2 F13 DEB.

Target Orbit TCA Probability of collision Miss distance Type
COSMOS 1275 DEB LEO 2025-10-04 06:01:00 0.0001050185 130.0 (m) DEBRIS
CZ-6A DEB LEO 2025-02-25 00:15:23 0.0001094071 487.0 (m) DEBRIS
CZ-6A DEB LEO 2025-01-27 23:22:38 0.0001512932 212.0 (m) DEBRIS

Associated space launch

Military meteorological satellite

DMSP 5D-2 F13 DEB was lifted into orbit during the mission ‘Atlas E | DMSP-5D2 F13’, on board a Atlas E space rocket.

The launch took place on March 24, 1995, 2:05 p.m. from Space Launch Complex 3W.

For more information about the launch, click the button.

Launch to space Atlas E | DMSP-5D2 F13
Atlas E | DMSP-5D2 F13

Agency: N/A

Status: Launch Successful

Launch date: March 24, 1995, 2:05 p.m. UTC

Rocket: Atlas E

Launch pad: Space Launch Complex 3W

Location: Vandenberg SFB, CA, USA

...

Latest news about this satellite

There are no fresh news available about this satellite. Check back as we update our databases every day.


Newsletter sign-up

Weekly statistics, charts and insights to help you stay on top of the space industry.